TimeEDT,TemperatureF,Dew PointF,Humidity,Sea Level PressureIn,VisibilityMPH,Wind Direction,Wind SpeedMPH,Gust SpeedMPH,PrecipitationIn,Events,Conditions,WindDirDegrees,DateUTC
12:52 AM,66.9,66.0,97,30.08,10.0,South,5.8,-,N/A,,Overcast,190,2013-07-07 04:52:00
1:52 AM,66.0,66.0,100,30.09,10.0,Calm,Calm,-,N/A,,Overcast,0,2013-07-07 05:52:00
2:52 AM,66.0,66.0,100,30.08,10.0,WNW,3.5,-,N/A,,Overcast,290,2013-07-07 06:52:00
3:52 AM,64.9,64.9,100,30.08,10.0,ESE,3.5,-,N/A,,Overcast,120,2013-07-07 07:52:00
4:52 AM,64.9,64.9,100,30.07,10.0,SSE,4.6,-,N/A,,Overcast,160,2013-07-07 08:52:00
5:52 AM,64.9,64.9,100,30.07,10.0,Calm,Calm,-,N/A,,Overcast,0,2013-07-07 09:52:00
6:52 AM,64.9,64.9,100,30.08,10.0,Calm,Calm,-,N/A,,Overcast,0,2013-07-07 10:52:00
7:52 AM,66.9,66.0,97,30.10,10.0,South,3.5,-,N/A,,Overcast,180,2013-07-07 11:52:00
8:38 AM,66.2,66.2,100,30.13,10.0,South,5.8,-,N/A,,Overcast,180,2013-07-07 12:38:00
8:52 AM,68.0,66.9,96,30.11,10.0,South,4.6,-,N/A,,Overcast,190,2013-07-07 12:52:00
9:52 AM,69.1,68.0,96,30.13,10.0,SW,4.6,-,N/A,,Overcast,230,2013-07-07 13:52:00
10:52 AM,69.8,68.0,94,30.12,10.0,SW,3.5,-,N/A,,Overcast,230,2013-07-07 14:52:00
11:44 AM,73.4,69.8,88,30.14,10.0,West,3.5,-,N/A,,Mostly Cloudy,280,2013-07-07 15:44:00
11:52 AM,73.9,68.0,82,30.11,10.0,South,3.5,-,N/A,,Mostly Cloudy,190,2013-07-07 15:52:00
12:44 PM,75.2,68.0,78,30.13,10.0,South,4.6,-,N/A,,Mostly Cloudy,170,2013-07-07 16:44:00
1:52 PM,77.0,69.1,76,30.10,10.0,SSW,6.9,-,N/A,,Mostly Cloudy,210,2013-07-07 17:52:00
2:52 PM,79.0,68.0,69,30.08,10.0,South,5.8,-,N/A,,Mostly Cloudy,190,2013-07-07 18:52:00
3:52 PM,81.0,68.0,65,30.07,10.0,SSW,8.1,-,N/A,,Scattered Clouds,210,2013-07-07 19:52:00
4:52 PM,80.1,68.0,67,30.05,10.0,SSW,5.8,-,N/A,,Scattered Clouds,200,2013-07-07 20:52:00
5:52 PM,81.0,68.0,65,30.04,10.0,Variable,4.6,-,N/A,,Mostly Cloudy,0,2013-07-07 21:52:00
6:52 PM,80.1,66.9,64,30.04,10.0,SW,8.1,-,N/A,,Scattered Clouds,230,2013-07-07 22:52:00
7:52 PM,79.0,66.9,66,30.05,10.0,Calm,Calm,-,N/A,,Scattered Clouds,0,2013-07-07 23:52:00
8:52 PM,75.0,68.0,79,30.06,10.0,SSW,4.6,-,N/A,,Scattered Clouds,210,2013-07-08 00:52:00
9:52 PM,73.0,68.0,84,30.08,10.0,Calm,Calm,-,N/A,,Partly Cloudy,0,2013-07-08 01:52:00
10:52 PM,69.1,66.9,93,30.09,9.0,SSW,3.5,-,N/A,,Clear,200,2013-07-08 02:52:00
11:52 PM,66.9,66.0,97,30.09,6.0,SSW,4.6,-,N/A,,Scattered Clouds,200,2013-07-08 03:52:00